Weather History for Novyi Urengoi, Russia

Change the Weather History Date:

Wednesday, June 22, 2011

  Actual Average Record
Temperature  
Mean Temperature 58 °F -  
Max Temperature 66 °F - - ()
Min Temperature 51 °F - - ()
Degree Days  
Heating Degree Days 6    
Growing Degree Days 8 (Base 50)    
Moisture  
Dew Point 41 °F    
Average Humidity 48    
Maximum Humidity 77    
Minimum Humidity 32    
Precipitation  
Precipitation 0.00 in - - ()
Sea Level Pressure  
Sea Level Pressure 29.85 in    
Wind  
Wind Speed 14 mph ()    
Max Wind Speed 22 mph    
Max Gust Speed 36 mph    
T = Trace of Precipitation, MM = Missing Value Source: Averaged Metar Reports

Daily Weather History Graph

Daily Weather History Graph

Search for Another Location

Airport:

Trip Planner

Search our weather history database for the weather conditions in past years. The results will help you decide how hot, cold, wet, or windy it might be!

Date:

Astronomy

Jun. 22, 2011 Rise Set
Actual Time 2:28 AM NOVT 1:23 AM NOVT
Civil Twilight Sun does not rise Sun does not rise
Nautical Twilight Sun does not rise Sun does not rise
Astronomical Twilight Sun does not rise Sun does not rise
Moon 1:02 AM NOVT (6/22) 12:52 PM NOVT (6/22)
Length of Visible Light 24h 00m
Length of Day
22h 55m
Waning Gibbous, 62% of the Moon is Illuminated
Jun 22
Waning Gibbous
Jun 23
Last Quarter
Jul 1
New
Jul 8
First Quarter
Jul 15
Full

Hourly Weather History & Observations

Time (NOVT) Temp. Dew Point Humidity Pressure Visibility Wind Dir Wind Speed Gust Speed Precip Events Conditions
12:00 AM 57.2 °F 48.2 °F 72% 29.83 in - North 8.9 mph - N/A   Clear
1:00 AM 55.4 °F 48.2 °F 77% 29.83 in - North 11.2 mph - N/A   Clear
2:00 AM 55.4 °F 48.2 °F 77% 29.83 in - North 8.9 mph - N/A   Clear
3:00 AM 53.6 °F 44.6 °F 72% 29.83 in - North 8.9 mph - N/A   Clear
4:00 AM 53.6 °F 44.6 °F 72% 29.83 in - NNE 11.2 mph - N/A   Clear
5:00 AM 51.8 °F 42.8 °F 71% 29.83 in - NNE 11.2 mph - N/A   Clear
6:00 AM 53.6 °F 44.6 °F 72% 29.83 in - NNE 11.2 mph - N/A   Clear
7:00 AM 55.4 °F 44.6 °F 67% 29.83 in - NNE 13.4 mph - N/A   Clear
7:30 AM 55.4 °F 44.6 °F 67% 29.83 in - NNE 11.2 mph - N/A   Clear
8:00 AM 55.4 °F 42.8 °F 63% 29.83 in - NNE 13.4 mph - N/A   Clear
8:30 AM 57.2 °F 42.8 °F 59% 29.83 in - NNE 15.7 mph - N/A   Clear
9:00 AM 59.0 °F 41.0 °F 51% 29.83 in - NNE 17.9 mph - N/A   Clear
9:30 AM 59.0 °F 39.2 °F 48% 29.83 in - NNE 17.9 mph 29.1 mph N/A   Clear
10:00 AM 60.8 °F 41.0 °F 48% 29.83 in - NNE 17.9 mph 29.1 mph N/A   Clear
10:30 AM 60.8 °F 41.0 °F 48% 29.83 in - NNE 22.4 mph - N/A   Clear
11:00 AM 62.6 °F 39.2 °F 42% 29.83 in - NNE 20.1 mph 31.3 mph N/A   Clear
11:30 AM 62.6 °F 39.2 °F 42% 29.83 in - NNE 20.1 mph - N/A   Clear
12:00 PM 64.4 °F 39.2 °F 40% 29.83 in - NNE 17.9 mph 31.3 mph N/A   Clear
12:30 PM 64.4 °F 41.0 °F 42% 29.83 in - NNE 20.1 mph 31.3 mph N/A   Clear
1:00 PM 64.4 °F 39.2 °F 40% 29.83 in - NNE 20.1 mph 31.3 mph N/A   Clear
1:30 PM 66.2 °F 39.2 °F 37% 29.86 in - NE 20.1 mph - N/A   Clear
2:00 PM 66.2 °F 39.2 °F 37% 29.86 in - NNE 22.4 mph 33.6 mph N/A   Clear
2:30 PM 66.2 °F 39.2 °F 37% 29.86 in - NNE 20.1 mph 33.6 mph N/A   Clear
3:00 PM 66.2 °F 41.0 °F 40% 29.86 in - NNE 20.1 mph 31.3 mph N/A   Clear
3:30 PM 66.2 °F 39.2 °F 37% 29.83 in - NNE 17.9 mph - N/A   Clear
4:00 PM 66.2 °F 39.2 °F 37% 29.86 in - NNE 20.1 mph - N/A   Clear
4:30 PM 66.2 °F 39.2 °F 37% 29.86 in - NNE 20.1 mph - N/A   Clear
5:00 PM 66.2 °F 39.2 °F 37% 29.86 in - NNE 20.1 mph 33.6 mph N/A   Clear
5:30 PM 66.2 °F 39.2 °F 37% 29.86 in - NNE 20.1 mph 31.3 mph N/A   Clear
6:00 PM 66.2 °F 39.2 °F 37% 29.86 in - NNE 22.4 mph 35.8 mph N/A   Clear
6:30 PM 66.2 °F 37.4 °F 35% 29.86 in - NNE 20.1 mph - N/A   Clear
7:00 PM 66.2 °F 37.4 °F 35% 29.86 in - NNE 20.1 mph 31.3 mph N/A   Clear
7:30 PM 66.2 °F 35.6 °F 32% 29.86 in - NNE 20.1 mph - N/A   Clear
8:00 PM 66.2 °F 37.4 °F 35% 29.86 in - NNE 17.9 mph 29.1 mph N/A   Clear
8:30 PM 64.4 °F 37.4 °F 37% 29.86 in - NNE 17.9 mph - N/A   Clear
9:00 PM 64.4 °F 37.4 °F 37% 29.89 in - NNE 20.1 mph - N/A   Clear
10:00 PM 62.6 °F 35.6 °F 37% 29.89 in - NNE 17.9 mph - N/A   Clear
11:00 PM 59.0 °F 35.6 °F 42% 29.89 in - NNE 13.4 mph - N/A   Clear